User: anonymous   Login
Location: Unspecified
(0.0000°N, 0.0000°E)
Time: 12:04:22
(UTC+01:00)
Language:

YAOGAN 3 - Orbit

View from above orbital plane
View from above orbital plane
View from above satellite
View from above satellite

Ground track
Ground track

The orbit data is extracted from the following two-line orbital elements,

1 32289U 07055A   15087.15055699  .00001024  00000-0  14108-3 0  9996
2 32289 097.9616 082.0266 0001894 082.2955 277.8487 14.80351282398570
Epoch (UTC): 28 March 2015 03:36:48
Eccentricity: 0.0001894
inclination: 97.9616°
perigee height: 627 km
apogee height: 629 km
right ascension of ascending node: 82.0266°
argument of perigee: 82.2955°
revolutions per day: 14.80351282
mean anomaly at epoch: 277.8487°
orbit number at epoch: 39857

The dashed part of the orbit path shows where the satellite is in the earth's shadow,  

DLR